TimeCDT,TemperatureF,Dew PointF,Humidity,Sea Level PressureIn,VisibilityMPH,Wind Direction,Wind SpeedMPH,Gust SpeedMPH,PrecipitationIn,Events,Conditions,WindDirDegrees,DateUTC
12:14 AM,26.6,24.8,93,30.33,10.0,Calm,Calm,-,N/A,,Clear,0,2012-10-28 05:14:00
12:53 AM,26.6,24.8,93,30.33,10.0,Calm,Calm,-,N/A,,Clear,0,2012-10-28 05:53:00
1:14 AM,26.6,24.8,93,30.33,10.0,Calm,Calm,-,N/A,,Clear,0,2012-10-28 06:14:00
1:34 AM,26.6,24.8,93,30.33,10.0,Calm,Calm,-,N/A,,Scattered Clouds,0,2012-10-28 06:34:00
1:53 AM,26.6,24.8,93,30.33,10.0,Calm,Calm,-,N/A,,Mostly Cloudy,0,2012-10-28 06:53:00
2:14 AM,26.6,26.6,100,30.33,10.0,Calm,Calm,-,N/A,,Scattered Clouds,0,2012-10-28 07:14:00
2:34 AM,26.6,26.6,100,30.33,10.0,Calm,Calm,-,N/A,,Scattered Clouds,0,2012-10-28 07:34:00
2:53 AM,26.6,24.8,93,30.32,10.0,Calm,Calm,-,N/A,,Mostly Cloudy,0,2012-10-28 07:53:00
3:14 AM,28.4,26.6,93,30.32,10.0,Calm,Calm,-,N/A,,Scattered Clouds,0,2012-10-28 08:14:00
3:34 AM,28.4,26.6,93,30.31,10.0,Calm,Calm,-,N/A,,Mostly Cloudy,0,2012-10-28 08:34:00
3:53 AM,30.2,26.6,86,30.31,10.0,SE,3.5,-,N/A,,Overcast,140,2012-10-28 08:53:00
4:14 AM,30.2,26.6,86,30.31,10.0,SSE,3.5,-,N/A,,Overcast,150,2012-10-28 09:14:00
4:34 AM,30.2,26.6,86,30.31,10.0,Calm,Calm,-,N/A,,Mostly Cloudy,0,2012-10-28 09:34:00
4:54 AM,30.2,26.6,86,30.31,10.0,Calm,Calm,-,N/A,,Overcast,0,2012-10-28 09:54:00
5:14 AM,30.2,26.6,86,30.31,10.0,Calm,Calm,-,N/A,,Mostly Cloudy,0,2012-10-28 10:14:00
5:34 AM,30.2,26.6,86,30.31,10.0,Calm,Calm,-,N/A,,Mostly Cloudy,0,2012-10-28 10:34:00
5:54 AM,30.2,26.6,86,30.31,10.0,Calm,Calm,-,N/A,,Overcast,0,2012-10-28 10:54:00
6:14 AM,30.2,26.6,86,30.31,10.0,Calm,Calm,-,N/A,,Overcast,0,2012-10-28 11:14:00
6:34 AM,30.2,26.6,86,30.32,10.0,Calm,Calm,-,N/A,,Scattered Clouds,0,2012-10-28 11:34:00
6:45 AM,30.2,26.6,86,30.32,10.0,Calm,Calm,-,N/A,,Scattered Clouds,0,2012-10-28 11:45:00
6:54 AM,28.4,26.6,93,30.32,10.0,Calm,Calm,-,N/A,,Scattered Clouds,0,2012-10-28 11:54:00
7:45 AM,28.4,26.6,93,30.33,10.0,SE,3.5,-,N/A,,Mostly Cloudy,140,2012-10-28 12:45:00
8:45 AM,30.2,28.4,93,30.34,10.0,SSE,6.9,-,N/A,,Mostly Cloudy,160,2012-10-28 13:45:00
9:45 AM,37.4,26.6,65,30.34,10.0,South,8.1,-,N/A,,Mostly Cloudy,170,2012-10-28 14:45:00
11:45 AM,41.0,24.8,53,30.33,10.0,South,9.2,-,N/A,,Mostly Cloudy,180,2012-10-28 16:45:00
12:50 PM,44.6,24.8,46,30.32,10.0,SSW,9.2,-,N/A,,Mostly Cloudy,200,2012-10-28 17:50:00
2:55 PM,44.6,24.8,46,30.29,10.0,SSW,11.5,-,N/A,,Mostly Cloudy,200,2012-10-28 19:55:00
3:55 PM,44.6,24.8,46,30.28,10.0,South,9.2,-,N/A,,Mostly Cloudy,170,2012-10-28 20:55:00
4:55 PM,46.4,24.8,43,30.27,10.0,SE,5.8,-,N/A,,Mostly Cloudy,140,2012-10-28 21:55:00
5:45 PM,44.6,24.8,46,30.27,10.0,SE,4.6,-,N/A,,Mostly Cloudy,140,2012-10-28 22:45:00
6:50 PM,42.8,24.8,49,30.28,10.0,ESE,4.6,-,N/A,,Mostly Cloudy,110,2012-10-28 23:50:00
8:45 PM,37.4,26.6,65,30.29,10.0,Calm,Calm,-,N/A,,Mostly Cloudy,0,2012-10-29 01:45:00
8:55 PM,35.6,26.6,70,30.29,10.0,East,3.5,-,N/A,,Scattered Clouds,100,2012-10-29 01:55:00
9:14 PM,39.2,26.6,61,30.29,10.0,Calm,Calm,-,N/A,,Overcast,0,2012-10-29 02:14:00
9:34 PM,39.2,28.4,65,30.29,10.0,ESE,5.8,-,N/A,,Overcast,120,2012-10-29 02:34:00
9:54 PM,39.2,26.6,61,30.29,10.0,SE,4.6,-,N/A,,Overcast,130,2012-10-29 02:54:00
10:13 PM,37.4,26.6,65,30.29,10.0,ESE,5.8,-,N/A,,Overcast,120,2012-10-29 03:13:00
10:34 PM,37.4,26.6,65,30.29,10.0,SE,4.6,-,N/A,,Overcast,130,2012-10-29 03:34:00
10:54 PM,35.6,26.6,70,30.29,10.0,SE,3.5,-,N/A,,Overcast,130,2012-10-29 03:54:00
11:14 PM,35.6,26.6,70,30.30,10.0,ESE,3.5,-,N/A,,Scattered Clouds,120,2012-10-29 04:14:00
11:53 PM,33.8,26.6,75,30.30,10.0,SE,3.5,-,N/A,,Clear,130,2012-10-29 04:53:00